IRIDIUM 33 DEB, 36493

Orbit data source: Space-Track

IRIDIUM 33 DEB, 36493 is space debris in LEO originally from a launch on Sun, 14 Sep 1997 UTC launched from the Tyuratam Missile And Space Complex (TTMTR). The debris from Iridium 33, an American commercial communications satellite, has been tracked extensively since its accidental collision with the defunct Russian satellite Cosmos 2251 in 2009. This event, occurring at high speed in low Earth orbit (LEO), generated thousands of pieces of space debris, significantly increasing the risk of further collisions. The Iridium 33 debris cloud has impacted space traffic management and orbital debris mitigation strategies, making it a subject of ongoing study in space situational awareness.

Loading next visibility...
Identifier
36493, 1997-051WK
Orbit
LEO
Country
Flag of USUS
Related business
Manufacturer
Unknown
Mission
Spacecraft
Bus & Motor
Unknown
Mass
Unknown
Launch date (UTC)
1997-09-14 (29 years ago)
Launch vehicle
Unknown
Launch site
Tyuratam Missile And Space Complex (TTMTR)
Object type
Payload
Rocket body
Debris
Shape & HBR
Unknown shape, 0.1 m
Radar Cross Section
Small (<0.1 m²)

Expand to show TLE details & history
Last TLE update: 1 day ago

TLE from 1 day ago
0 IRIDIUM 33 DEB
1 36493U 97051WK  26207.92895108  .00004934  00000-0  85428-3 0  9996
2 36493  86.3539 270.9081 0007280 296.7174  63.3295 14.68140205778349
Epoch: 2026-07-26T22:17Z
TLE epoch observation values (Epoch: 2026-07-26T22:17:41.373Z)
Latitude
-0.00001°
Longitude
-8.13412°
Altitude
667.81 km
Speed
7.524 km/s
True Right ascension
18h 03m 37s
True Declination
0° 00' 00"
Sunlit
Object was in full shadow at epoch
Visualization orbit readout
Latitude
Unknown
Longitude
Unknown
Altitude
Unknown
Speed
Unknown
Apparent Right ascension
Unknown
Apparent Declination
Unknown
Sunlit
N/A
Visualization observer readout
Local Sidereal Time
20:54:06
Azimuth
Unknown
Elevation
Unknown
Doppler factor
Unknown
Orbital elements
Apogee altitude
669.056 km
Perigee altitude
658.802 km
Semi-major axis
7,042.066 km
Eccentricity
0.00073
Inclination
86.3539°
RAAN
270.9081°
Arg. of periapsis
296.7174°
True anomaly
63.40408°
Mean anomaly
63.3295°
Eccentric anomaly
63.36679°
Mean motion
3.67276 °/min
Orbital period
98.02 mins
BSTAR
0.00085428
Loading maneuver chart data...
Computing Atmospheric mass density...
Loading historical data...
Loading historical data...
Loading historical data...
Loading historical data...
Loading historical data...
Loading historical data...
Loading historical data...

Documentation

Showing up to 5 results
|